Location: Fort Worth, Tx
(32.7431°N, 97.3695°W)
Time: 20:39:27
(UTC-05:00)

Vanguard 2 Rocket - Visible Passes

Search period start: 28 February 2024 00:00
Search period end: 09 March 2024 00:00
Orbit: 554 x 3309 km, 32.9° (Epoch: 28 February)

Date Brightness Start Highest point End Pass type
(mag) Time Alt. Az. Time Alt. Az. Time Alt. Az.
28 Feb 10.9 00:11:13 10° WSW 00:18:13 13° SW 00:21:48 12° SW visible
28 Feb 10.0 20:43:09 10° W 20:57:58 51° SSW 21:16:59 10° SE visible
28 Feb 10.8 23:02:22 10° W 23:14:42 21° SW 23:24:22 14° S visible
29 Feb 9.8 19:40:33 10° W 19:53:59 61° SSW 20:13:25 10° SE visible
29 Feb 10.5 21:57:03 10° W 22:10:59 30° SW 22:26:52 10° SSE visible
01 Mar 10.3 20:53:18 10° W 21:07:08 39° SSW 21:24:46 10° SSE visible
01 Mar 11.0 23:16:30 10° WSW 23:23:47 13° SW 23:31:18 10° SSW visible
02 Mar 10.0 19:50:28 10° W 20:03:18 49° SSW 20:21:41 10° SE visible
02 Mar 10.8 22:08:39 10° W 22:20:06 21° SW 22:32:57 10° S visible
03 Mar 10.6 21:03:58 10° W 21:16:21 29° SW 21:31:49 10° SSE visible
04 Mar 10.3 20:00:41 10° W 20:12:38 37° SSW 20:29:21 10° SSE visible
04 Mar 11.1 22:22:55 10° WSW 22:29:24 13° SW 22:36:22 10° SSW visible
05 Mar 10.9 21:15:40 10° WSW 21:25:41 20° SW 21:37:40 10° S visible
06 Mar 10.6 20:11:27 10° W 20:22:03 27° SSW 20:36:14 10° SSE visible
07 Mar 11.1 21:30:39 10° SW 21:35:14 11° SW 21:40:12 10° SSW visible
08 Mar 11.0 20:23:24 10° WSW 20:31:36 18° SW 20:41:46 10° S visible
